| time (UTC) | temp C | wind direction | speed KPH | gust KPH | rain 1hr cm | rain 24hr cm | rain mn cm | humidity % | barometer mb |
| 20260509064541 | 8 | 288 | 1.6 | 3.2 | 0.00 | 0.00 | 0.00 | 73 | 1005.5 |
| 20260509064022 | 8 | 308 | 1.6 | 3.2 | 0.00 | 0.00 | 0.00 | 72 | 1005.6 |
| 20260509063518 | 8 | 305 | 1.6 | 3.2 | 0.00 | 0.00 | 0.00 | 72 | 1005.6 |
| 20260509063019 | 8 | 311 | 1.6 | 3.2 | 0.00 | 0.00 | 0.00 | 71 | 1005.6 |
| 20260509062518 | 8 | 316 | 1.6 | 4.8 | 0.00 | 0.00 | 0.00 | 69 | 1005.6 |
| 20260509062018 | 8 | 319 | 1.6 | 3.2 | 0.00 | 0.00 | 0.00 | 68 | 1005.6 |
| 20260509061521 | 8 | 321 | 1.6 | 4.8 | 0.00 | 0.00 | 0.00 | 68 | 1005.7 |
| 20260509061041 | 8 | 237 | 1.6 | 4.8 | 0.00 | 0.00 | 0.00 | 68 | 1005.7 |
| 20260509060519 | 7 | 227 | 1.6 | 6.4 | 0.00 | 0.00 | 0.00 | 66 | 1005.8 |
| 20260509060020 | 7 | 319 | 1.6 | 3.2 | 0.00 | 0.00 | 0.00 | 65 | 1005.9 |
| 20260509055519 | 7 | 323 | 1.6 | 4.8 | 0.00 | 0.00 | 0.00 | 64 | 1005.9 |
| 20260509055019 | 7 | 315 | 1.6 | 3.2 | 0.00 | 0.00 | 0.00 | 63 | 1005.9 |
| 20260509054520 | 7 | 329 | 1.6 | 3.2 | 0.00 | 0.00 | 0.00 | 62 | 1005.9 |
| 20260509054020 | 7 | 323 | 1.6 | 4.8 | 0.00 | 0.00 | 0.00 | 61 | 1005.9 |
| 20260509053519 | 7 | 323 | 1.6 | 3.2 | 0.00 | 0.00 | 0.00 | 61 | 1005.9 |
| 20260509053020 | 7 | 322 | 1.6 | 3.2 | 0.00 | 0.00 | 0.00 | 61 | 1005.9 |
| 20260509052521 | 7 | 320 | 3.2 | 4.8 | 0.00 | 0.00 | 0.00 | 62 | 1005.9 |
| 20260509052020 | 7 | 332 | 1.6 | 3.2 | 0.00 | 0.00 | 0.00 | 62 | 1005.9 |
| 20260509051519 | 7 | 320 | 1.6 | 3.2 | 0.00 | 0.00 | 0.00 | 62 | 1006.0 |
| 20260509051020 | 6 | 309 | 1.6 | 3.2 | 0.00 | 0.00 | 0.00 | 63 | 1006.1 |
| 20260509050522 | 6 | 318 | 1.6 | 3.2 | 0.00 | 0.00 | 0.00 | 64 | 1006.1 |
| 20260509050020 | 6 | 302 | 1.6 | 3.2 | 0.00 | 0.00 | 0.00 | 65 | 1006.1 |
| 20260509045520 | 6 | 298 | 0.0 | 1.6 | 0.00 | 0.00 | 0.00 | 66 | 1006.2 |
| 20260509045020 | 6 | 311 | 0.0 | 1.6 | 0.00 | 0.00 | 0.00 | 66 | 1006.2 |
| 20260509044522 | 6 | 268 | 0.0 | 1.6 | 0.00 | 0.00 | 0.00 | 67 | 1006.3 |
| 20260509044020 | 6 | 243 | 0.0 | 1.6 | 0.00 | 0.00 | 0.00 | 68 | 1006.4 |
| 20260509043520 | 6 | 264 | 0.0 | 1.6 | 0.00 | 0.00 | 0.00 | 67 | 1006.4 |
| 20260509043022 | 7 | 276 | 0.0 | 1.6 | 0.00 | 0.00 | 0.00 | 67 | 1006.4 |
| 20260509042518 | 7 | 274 | 0.0 | 1.6 | 0.00 | 0.00 | 0.00 | 67 | 1006.4 |
| 20260509042018 | 6 | 289 | 1.6 | 1.6 | 0.00 | 0.00 | 0.00 | 67 | 1006.4 |
| 20260509041521 | 7 | 296 | 0.0 | 3.2 | 0.00 | 0.00 | 0.00 | 68 | 1006.4 |
| 20260509041022 | 7 | 262 | 0.0 | 1.6 | 0.00 | 0.00 | 0.00 | 68 | 1006.5 |
| 20260509040521 | 7 | 264 | 0.0 | 1.6 | 0.00 | 0.00 | 0.00 | 68 | 1006.5 |
| 20260509040021 | 7 | 248 | 0.0 | 1.6 | 0.00 | 0.00 | 0.00 | 68 | 1006.6 |
| 20260509035521 | 7 | 242 | 0.0 | 3.2 | 0.00 | 0.00 | 0.00 | 69 | 1006.6 |
| 20260509035022 | 7 | 240 | 0.0 | 3.2 | 0.00 | 0.00 | 0.00 | 68 | 1006.6 |
| 20260509034518 | 7 | 266 | 0.0 | 1.6 | 0.00 | 0.00 | 0.00 | 66 | 1006.6 |
| 20260509034018 | 7 | 265 | 0.0 | 1.6 | 0.00 | 0.00 | 0.00 | 67 | 1006.6 |
| 20260509033523 | 7 | 242 | 0.0 | 1.6 | 0.00 | 0.00 | 0.00 | 67 | 1006.7 |
| 20260509033021 | 7 | 231 | 0.0 | 3.2 | 0.00 | 0.00 | 0.00 | 67 | 1006.7 |
| 20260509032521 | 7 | 261 | 0.0 | 1.6 | 0.00 | 0.00 | 0.00 | 66 | 1006.8 |
| 20260509032021 | 7 | 244 | 1.6 | 3.2 | 0.00 | 0.00 | 0.00 | 65 | 1006.8 |
| 20260509031523 | 7 | 257 | 1.6 | 3.2 | 0.00 | 0.00 | 0.00 | 64 | 1006.9 |
| 20260509031038 | 7 | 259 | 1.6 | 3.2 | 0.00 | 0.00 | 0.00 | 63 | 1007.0 |
| 20260509030518 | 7 | 228 | 1.6 | 3.2 | 0.00 | 0.00 | 0.00 | 62 | 1007.0 |
| 20260509030019 | 7 | 248 | 0.0 | 1.6 | 0.00 | 0.00 | 0.00 | 61 | 1007.1 |
| 20260509025521 | 7 | 255 | 1.6 | 1.6 | 0.00 | 0.00 | 0.00 | 61 | 1007.2 |
| 20260509025019 | 7 | 261 | 0.0 | 1.6 | 0.00 | 0.00 | 0.00 | 60 | 1007.2 |
| 20260509024525 | 7 | 289 | 0.0 | 1.6 | 0.00 | 0.00 | 0.00 | 60 | 1007.2 |
| 20260509024027 | 7 | 306 | 1.6 | 1.6 | 0.00 | 0.00 | 0.00 | 62 | 1007.3 |
| 20260509023539 | 8 | 269 | 1.6 | 1.6 | 0.00 | 0.00 | 0.00 | 62 | 1007.3 |
| 20260509023019 | 8 | 266 | 1.6 | 1.6 | 0.00 | 0.00 | 0.00 | 63 | 1007.3 |
| 20260509022519 | 8 | 253 | 1.6 | 1.6 | 0.00 | 0.00 | 0.00 | 62 | 1007.3 |
| 20260509022020 | 8 | 243 | 1.6 | 3.2 | 0.00 | 0.00 | 0.00 | 61 | 1007.4 |
| 20260509021519 | 8 | 239 | 1.6 | 1.6 | 0.00 | 0.00 | 0.00 | 60 | 1007.4 |
| 20260509021019 | 8 | 219 | 1.6 | 3.2 | 0.00 | 0.00 | 0.00 | 58 | 1007.4 |
| 20260509020520 | 8 | 245 | 1.6 | 1.6 | 0.00 | 0.00 | 0.00 | 57 | 1007.3 |
| 20260509020021 | 9 | 223 | 1.6 | 3.2 | 0.00 | 0.00 | 0.00 | 55 | 1007.3 |
| 20260509015520 | 9 | 211 | 1.6 | 3.2 | 0.00 | 0.00 | 0.00 | 55 | 1007.3 |
| 20260509015019 | 9 | 233 | 1.6 | 3.2 | 0.00 | 0.00 | 0.00 | 54 | 1007.3 |
| 20260509014522 | 10 | 242 | 1.6 | 1.6 | 0.00 | 0.00 | 0.00 | 53 | 1007.2 |
| 20260509014017 | 10 | 233 | 1.6 | 1.6 | 0.00 | 0.00 | 0.00 | 51 | 1007.2 |
| 20260509013520 | 10 | 231 | 1.6 | 3.2 | 0.00 | 0.00 | 0.00 | 51 | 1007.1 |
| 20260509013021 | 11 | 216 | 1.6 | 3.2 | 0.00 | 0.00 | 0.00 | 51 | 1007.1 |
| 20260509012521 | 11 | 238 | 1.6 | 1.6 | 0.00 | 0.00 | 0.00 | 49 | 1007.0 |
| 20260509012039 | 11 | 258 | 0.0 | 1.6 | 0.00 | 0.00 | 0.00 | 45 | 1007.1 |
| 20260509011520 | 11 | 247 | 0.0 | 1.6 | 0.00 | 0.00 | 0.00 | 43 | 1007.1 |
| 20260509011040 | 11 | 272 | 0.0 | 1.6 | 0.00 | 0.00 | 0.00 | 43 | 1007.1 |
| 20260509010521 | 11 | 263 | 1.6 | 1.6 | 0.00 | 0.00 | 0.00 | 43 | 1007.1 |
| 20260509010017 | 12 | 235 | 1.6 | 3.2 | 0.00 | 0.00 | 0.00 | 41 | 1007.1 |
| 20260509005517 | 12 | 222 | 1.6 | 3.2 | 0.00 | 0.00 | 0.00 | 40 | 1007.1 |
| 20260509005019 | 12 | 239 | 1.6 | 3.2 | 0.00 | 0.00 | 0.00 | 39 | 1007.1 |
| 20260509004518 | 12 | 255 | 0.0 | 1.6 | 0.00 | 0.00 | 0.00 | 38 | 1007.1 |
| 20260509004021 | 13 | 282 | 1.6 | 1.6 | 0.00 | 0.00 | 0.00 | 38 | 1007.1 |
| 20260509003520 | 13 | 292 | 1.6 | 1.6 | 0.00 | 0.00 | 0.00 | 37 | 1007.2 |
| 20260509003103 | 13 | 294 | 0.0 | 1.6 | 0.00 | 0.00 | 0.00 | 37 | 1007.2 |
| 20260509002521 | 13 | 252 | 0.0 | 1.6 | 0.00 | 0.00 | 0.00 | 37 | 1007.2 |
| 20260509002020 | 14 | 286 | 0.0 | 3.2 | 0.00 | 0.00 | 0.00 | 36 | 1007.2 |
| 20260509001518 | 14 | 84 | 0.0 | 3.2 | 0.00 | 0.00 | 0.00 | 36 | 1007.3 |
| 20260509001019 | 15 | 143 | 0.0 | 3.2 | 0.00 | 0.00 | 0.00 | 36 | 1007.4 |
| 20260509000517 | 15 | 131 | 1.6 | 3.2 | 0.00 | 0.00 | 0.00 | 36 | 1007.4 |
| 20260509000018 | 15 | 293 | 1.6 | 4.8 | 0.00 | 0.00 | 0.00 | 36 | 1007.4 |
| 20260508235540 | 15 | 293 | 1.6 | 6.4 | 0.00 | 0.00 | 0.00 | 36 | 1007.4 |
| 20260508235018 | 16 | 318 | 3.2 | 6.4 | 0.00 | 0.00 | 0.00 | 35 | 1007.5 |
| 20260508234519 | 16 | 73 | 1.6 | 6.4 | 0.00 | 0.00 | 0.00 | 36 | 1007.6 |
| 20260508234018 | 16 | 159 | 1.6 | 3.2 | 0.00 | 0.00 | 0.00 | 35 | 1007.6 |
| 20260508233520 | 16 | 310 | 1.6 | 8.0 | 0.00 | 0.00 | 0.00 | 35 | 1007.6 |
| 20260508233018 | 16 | 307 | 1.6 | 9.7 | 0.00 | 0.00 | 0.00 | 35 | 1007.6 |
| 20260508232538 | 17 | 320 | 3.2 | 9.7 | 0.00 | 0.00 | 0.00 | 34 | 1007.6 |
| 20260508232019 | 17 | 279 | 3.2 | 8.0 | 0.00 | 0.00 | 0.00 | 34 | 1007.6 |
| 20260508231540 | 17 | 306 | 3.2 | 9.7 | 0.00 | 0.00 | 0.00 | 34 | 1007.5 |
| 20260508231040 | 17 | 297 | 3.2 | 12.9 | 0.00 | 0.00 | 0.00 | 33 | 1007.5 |
| 20260508230542 | 17 | 319 | 3.2 | 6.4 | 0.00 | 0.00 | 0.00 | 34 | 1007.6 |
| 20260508230021 | 17 | 323 | 3.2 | 11.3 | 0.00 | 0.00 | 0.00 | 34 | 1007.5 |
| 20260508225519 | 17 | 318 | 3.2 | 8.0 | 0.00 | 0.00 | 0.00 | 34 | 1007.4 |
| 20260508225019 | 17 | 339 | 3.2 | 9.7 | 0.00 | 0.00 | 0.00 | 34 | 1007.5 |
| 20260508224539 | 17 | 315 | 3.2 | 11.3 | 0.00 | 0.00 | 0.00 | 34 | 1007.5 |
| 20260508224021 | 17 | 332 | 3.2 | 9.7 | 0.00 | 0.00 | 0.00 | 34 | 1007.5 |
| 20260508223519 | 18 | 292 | 3.2 | 11.3 | 0.00 | 0.00 | 0.00 | 34 | 1007.5 |
| 20260508223019 | 17 | 358 | 3.2 | 8.0 | 0.00 | 0.00 | 0.00 | 34 | 1007.5 |
| 20260508222519 | 17 | 282 | 3.2 | 9.7 | 0.00 | 0.00 | 0.00 | 33 | 1007.5 |
| 20260508222021 | 18 | 295 | 3.2 | 11.3 | 0.00 | 0.00 | 0.00 | 33 | 1007.5 |
| 20260508221519 | 18 | 297 | 4.8 | 8.0 | 0.00 | 0.00 | 0.00 | 33 | 1007.5 |
| 20260508221019 | 17 | 291 | 3.2 | 6.4 | 0.00 | 0.00 | 0.00 | 34 | 1007.5 |
| 20260508220522 | 17 | 302 | 4.8 | 9.7 | 0.00 | 0.00 | 0.00 | 34 | 1007.5 |
| 20260508220020 | 17 | 330 | 3.2 | 14.5 | 0.00 | 0.00 | 0.00 | 34 | 1007.6 |
| 20260508215540 | 17 | 302 | 4.8 | 11.3 | 0.00 | 0.00 | 0.00 | 33 | 1007.6 |
| 20260508215020 | 17 | 309 | 4.8 | 9.7 | 0.00 | 0.00 | 0.00 | 33 | 1007.6 |
| 20260508214522 | 17 | 305 | 4.8 | 12.9 | 0.00 | 0.00 | 0.00 | 34 | 1007.5 |
| 20260508214040 | 17 | 313 | 4.8 | 14.5 | 0.00 | 0.00 | 0.00 | 33 | 1007.6 |
| 20260508213520 | 17 | 307 | 4.8 | 11.3 | 0.00 | 0.00 | 0.00 | 33 | 1007.6 |
| 20260508213018 | 17 | 295 | 6.4 | 16.1 | 0.00 | 0.00 | 0.00 | 33 | 1007.6 |
| 20260508212519 | 17 | 311 | 4.8 | 17.7 | 0.00 | 0.00 | 0.00 | 34 | 1007.6 |
| 20260508212017 | 17 | 294 | 4.8 | 12.9 | 0.00 | 0.00 | 0.00 | 34 | 1007.6 |
| 20260508211537 | 17 | 308 | 6.4 | 14.5 | 0.00 | 0.00 | 0.00 | 34 | 1007.6 |
| 20260508211019 | 17 | 298 | 4.8 | 12.9 | 0.00 | 0.00 | 0.00 | 35 | 1007.7 |
| 20260508210540 | 17 | 313 | 6.4 | 14.5 | 0.00 | 0.00 | 0.00 | 35 | 1007.6 |
| 20260508210021 | 17 | 302 | 4.8 | 14.5 | 0.00 | 0.00 | 0.00 | 35 | 1007.7 |
| 20260508205521 | 17 | 313 | 4.8 | 12.9 | 0.00 | 0.00 | 0.00 | 35 | 1007.8 |
| 20260508205042 | 17 | 310 | 4.8 | 14.5 | 0.00 | 0.00 | 0.00 | 34 | 1007.8 |
| 20260508204518 | 17 | 259 | 3.2 | 9.7 | 0.00 | 0.00 | 0.00 | 34 | 1007.8 |
| 20260508204038 | 17 | 297 | 3.2 | 9.7 | 0.00 | 0.00 | 0.00 | 35 | 1007.9 |
| 20260508203518 | 17 | 302 | 6.4 | 12.9 | 0.00 | 0.00 | 0.00 | 35 | 1007.9 |
| 20260508203040 | 17 | 336 | 4.8 | 12.9 | 0.00 | 0.00 | 0.00 | 35 | 1008.0 |
| 20260508202518 | 17 | 299 | 4.8 | 11.3 | 0.00 | 0.00 | 0.00 | 34 | 1008.0 |
| 20260508202018 | 17 | 282 | 4.8 | 12.9 | 0.00 | 0.00 | 0.00 | 34 | 1008.0 |
| 20260508201523 | 17 | 307 | 4.8 | 12.9 | 0.00 | 0.00 | 0.00 | 35 | 1008.1 |
| 20260508201021 | 17 | 308 | 6.4 | 17.7 | 0.00 | 0.00 | 0.00 | 34 | 1008.1 |
| 20260508200518 | 18 | 322 | 6.4 | 17.7 | 0.00 | 0.00 | 0.00 | 35 | 1008.2 |
| 20260508200059 | 18 | 321 | 4.8 | 12.9 | 0.00 | 0.00 | 0.00 | 35 | 1008.3 |
| 20260508195520 | 17 | 308 | 4.8 | 11.3 | 0.00 | 0.00 | 0.00 | 35 | 1008.4 |
| 20260508195019 | 17 | 314 | 4.8 | 12.9 | 0.00 | 0.00 | 0.00 | 36 | 1008.4 |
| 20260508194519 | 17 | 323 | 4.8 | 11.3 | 0.00 | 0.00 | 0.00 | 36 | 1008.4 |
| 20260508194018 | 17 | 319 | 6.4 | 14.5 | 0.00 | 0.00 | 0.00 | 36 | 1008.4 |
| 20260508193520 | 17 | 329 | 4.8 | 14.5 | 0.00 | 0.00 | 0.00 | 36 | 1008.5 |
| 20260508193018 | 17 | 322 | 6.4 | 11.3 | 0.00 | 0.00 | 0.00 | 35 | 1008.6 |
| 20260508192518 | 17 | 325 | 4.8 | 12.9 | 0.00 | 0.00 | 0.00 | 35 | 1008.6 |
| 20260508192102 | 17 | 310 | 4.8 | 14.5 | 0.00 | 0.00 | 0.00 | 35 | 1008.6 |
| 20260508191519 | 17 | 304 | 4.8 | 11.3 | 0.00 | 0.00 | 0.00 | 35 | 1008.6 |
| 20260508191020 | 17 | 313 | 4.8 | 16.1 | 0.00 | 0.00 | 0.00 | 35 | 1008.7 |
| 20260508190518 | 17 | 291 | 4.8 | 16.1 | 0.00 | 0.00 | 0.00 | 35 | 1008.7 |
| 20260508190018 | 17 | 313 | 4.8 | 12.9 | 0.00 | 0.00 | 0.00 | 36 | 1008.8 |
| 20260508185519 | 17 | 337 | 4.8 | 14.5 | 0.00 | 0.00 | 0.00 | 36 | 1008.9 |
| 20260508185020 | 17 | 310 | 4.8 | 12.9 | 0.00 | 0.00 | 0.00 | 35 | 1008.9 |
| 20260508184518 | 17 | 297 | 4.8 | 12.9 | 0.00 | 0.00 | 0.00 | 36 | 1008.9 |
| 20260508184039 | 17 | 304 | 6.4 | 14.5 | 0.00 | 0.00 | 0.00 | 36 | 1009.0 |
| 20260508183540 | 17 | 322 | 4.8 | 12.9 | 0.00 | 0.00 | 0.00 | 37 | 1009.0 |
| 20260508183019 | 17 | 311 | 4.8 | 11.3 | 0.00 | 0.00 | 0.00 | 36 | 1009.0 |
| 20260508182519 | 17 | 311 | 4.8 | 14.5 | 0.00 | 0.00 | 0.00 | 37 | 1009.1 |
| 20260508182019 | 17 | 311 | 3.2 | 11.3 | 0.00 | 0.00 | 0.00 | 37 | 1009.2 |
| 20260508181521 | 17 | 322 | 4.8 | 14.5 | 0.00 | 0.00 | 0.00 | 37 | 1009.2 |
| 20260508181019 | 17 | 327 | 4.8 | 9.7 | 0.00 | 0.00 | 0.00 | 38 | 1009.3 |
| 20260508180519 | 17 | 350 | 4.8 | 14.5 | 0.00 | 0.00 | 0.00 | 37 | 1009.4 |
| 20260508180037 | 17 | 324 | 6.4 | 14.5 | 0.00 | 0.00 | 0.00 | 38 | 1009.4 |
| 20260508175538 | 17 | 305 | 4.8 | 14.5 | 0.00 | 0.00 | 0.00 | 38 | 1009.5 |
| 20260508175037 | 16 | 313 | 4.8 | 19.3 | 0.00 | 0.00 | 0.00 | 38 | 1009.6 |
| 20260508174519 | 16 | 342 | 4.8 | 9.7 | 0.00 | 0.00 | 0.00 | 38 | 1009.7 |
| 20260508174021 | 16 | 328 | 6.4 | 17.7 | 0.00 | 0.00 | 0.00 | 38 | 1009.8 |
| 20260508173520 | 16 | 295 | 8.0 | 14.5 | 0.00 | 0.00 | 0.00 | 38 | 1009.8 |
| 20260508173020 | 17 | 301 | 6.4 | 14.5 | 0.00 | 0.00 | 0.00 | 38 | 1009.9 |
| 20260508172520 | 17 | 300 | 6.4 | 11.3 | 0.00 | 0.00 | 0.00 | 38 | 1010.0 |
| 20260508172059 | 17 | 17 | 4.8 | 12.9 | 0.00 | 0.00 | 0.00 | 38 | 1010.1 |
| 20260508171517 | 17 | 338 | 3.2 | 9.7 | 0.00 | 0.00 | 0.00 | 39 | 1010.2 |
| 20260508171017 | 16 | 145 | 3.2 | 9.7 | 0.00 | 0.00 | 0.00 | 39 | 1010.2 |
| 20260508170517 | 16 | 160 | 3.2 | 12.9 | 0.00 | 0.00 | 0.00 | 40 | 1010.3 |
| 20260508170022 | 16 | 94 | 4.8 | 9.7 | 0.00 | 0.00 | 0.00 | 41 | 1010.5 |
| 20260508165520 | 16 | 39 | 4.8 | 9.7 | 0.00 | 0.00 | 0.00 | 42 | 1010.5 |
| 20260508165020 | 15 | 353 | 4.8 | 12.9 | 0.00 | 0.00 | 0.00 | 42 | 1010.6 |
| 20260508164539 | 16 | 343 | 6.4 | 14.5 | 0.00 | 0.00 | 0.00 | 41 | 1010.7 |
| 20260508164018 | 16 | 305 | 4.8 | 14.5 | 0.00 | 0.00 | 0.00 | 42 | 1010.9 |
| 20260508163518 | 16 | 21 | 4.8 | 9.7 | 0.00 | 0.00 | 0.00 | 41 | 1010.9 |
| 20260508163020 | 16 | 4 | 4.8 | 9.7 | 0.00 | 0.00 | 0.00 | 41 | 1011.0 |
| 20260508162520 | 16 | 336 | 4.8 | 14.5 | 0.00 | 0.00 | 0.00 | 42 | 1011.0 |
| 20260508162018 | 15 | 103 | 3.2 | 9.7 | 0.00 | 0.00 | 0.00 | 41 | 1011.0 |
| 20260508161558 | 16 | 293 | 4.8 | 11.3 | 0.00 | 0.00 | 0.00 | 42 | 1011.0 |
| 20260508161101 | 16 | 323 | 3.2 | 11.3 | 0.00 | 0.00 | 0.00 | 41 | 1011.1 |
| 20260508160520 | 16 | 308 | 3.2 | 8.0 | 0.00 | 0.00 | 0.00 | 41 | 1011.1 |
| 20260508160058 | 16 | 345 | 4.8 | 12.9 | 0.00 | 0.00 | 0.00 | 43 | 1011.0 |
| 20260508155518 | 15 | 121 | 3.2 | 9.7 | 0.00 | 0.00 | 0.00 | 42 | 1011.0 |
| 20260508155040 | 15 | 24 | 3.2 | 9.7 | 0.00 | 0.00 | 0.00 | 43 | 1011.1 |
| 20260508154518 | 15 | 329 | 3.2 | 11.3 | 0.00 | 0.00 | 0.00 | 44 | 1011.1 |
| 20260508154019 | 15 | 329 | 6.4 | 12.9 | 0.00 | 0.00 | 0.00 | 43 | 1011.2 |
| 20260508153518 | 15 | 31 | 4.8 | 11.3 | 0.00 | 0.00 | 0.00 | 44 | 1011.2 |
| 20260508153020 | 15 | 162 | 3.2 | 9.7 | 0.00 | 0.00 | 0.00 | 43 | 1011.2 |
| 20260508152519 | 15 | 176 | 4.8 | 11.3 | 0.00 | 0.00 | 0.00 | 44 | 1011.2 |
| 20260508152019 | 15 | 141 | 4.8 | 9.7 | 0.00 | 0.00 | 0.00 | 47 | 1011.3 |
| 20260508151519 | 14 | 141 | 3.2 | 9.7 | 0.00 | 0.00 | 0.00 | 49 | 1011.3 |
| 20260508151022 | 14 | 34 | 4.8 | 11.3 | 0.00 | 0.00 | 0.00 | 52 | 1011.4 |
| 20260508150519 | 14 | 10 | 4.8 | 9.7 | 0.00 | 0.00 | 0.00 | 54 | 1011.5 |
| 20260508150039 | 13 | 144 | 3.2 | 8.0 | 0.00 | 0.00 | 0.00 | 54 | 1011.6 |
| 20260508145521 | 13 | 98 | 3.2 | 8.0 | 0.00 | 0.00 | 0.00 | 58 | 1011.6 |
| 20260508145039 | 13 | 84 | 4.8 | 9.7 | 0.00 | 0.00 | 0.00 | 56 | 1011.6 |
| 20260508144519 | 14 | 73 | 4.8 | 9.7 | 0.00 | 0.00 | 0.00 | 55 | 1011.6 |
| 20260508144040 | 14 | 124 | 4.8 | 12.9 | 0.00 | 0.00 | 0.00 | 54 | 1011.6 |
| 20260508143518 | 14 | 84 | 3.2 | 8.0 | 0.00 | 0.00 | 0.00 | 59 | 1011.6 |
| 20260508143019 | 14 | 74 | 3.2 | 11.3 | 0.00 | 0.00 | 0.00 | 59 | 1011.7 |
| 20260508142519 | 15 | 86 | 4.8 | 11.3 | 0.00 | 0.00 | 0.00 | 57 | 1011.8 |
| 20260508142019 | 14 | 189 | 3.2 | 6.4 | 0.00 | 0.00 | 0.00 | 58 | 1011.8 |
| 20260508141521 | 14 | 141 | 1.6 | 4.8 | 0.00 | 0.00 | 0.00 | 59 | 1011.9 |
| 20260508141040 | 14 | 181 | 3.2 | 9.7 | 0.00 | 0.00 | 0.00 | 61 | 1011.9 |
| 20260508140520 | 13 | 161 | 3.2 | 9.7 | 0.00 | 0.00 | 0.00 | 63 | 1011.9 |
| 20260508140022 | 13 | 282 | 3.2 | 9.7 | 0.00 | 0.00 | 0.00 | 66 | 1011.9 |
| 20260508135521 | 13 | 228 | 1.6 | 6.4 | 0.00 | 0.00 | 0.00 | 66 | 1011.9 |
| 20260508135021 | 13 | 250 | 1.6 | 6.4 | 0.00 | 0.00 | 0.00 | 67 | 1011.9 |
| 20260508134518 | 13 | 167 | 3.2 | 9.7 | 0.00 | 0.00 | 0.00 | 67 | 1012.0 |
| 20260508134019 | 13 | 168 | 3.2 | 9.7 | 0.00 | 0.00 | 0.00 | 68 | 1012.0 |
| 20260508133518 | 13 | 167 | 3.2 | 8.0 | 0.00 | 0.00 | 0.00 | 70 | 1012.0 |
| 20260508133018 | 12 | 189 | 1.6 | 6.4 | 0.00 | 0.00 | 0.00 | 72 | 1012.0 |
| 20260508132518 | 12 | 164 | 3.2 | 9.7 | 0.00 | 0.00 | 0.00 | 73 | 1012.1 |
| 20260508132019 | 12 | 183 | 1.6 | 4.8 | 0.00 | 0.00 | 0.00 | 74 | 1012.1 |
| 20260508131517 | 11 | 171 | 1.6 | 6.4 | 0.00 | 0.00 | 0.00 | 75 | 1012.1 |
| 20260508131017 | 11 | 180 | 3.2 | 6.4 | 0.00 | 0.00 | 0.00 | 75 | 1012.1 |
| 20260508130521 | 11 | 175 | 1.6 | 6.4 | 0.00 | 0.00 | 0.00 | 77 | 1012.1 |
| 20260508130019 | 11 | 170 | 3.2 | 6.4 | 0.00 | 0.00 | 0.00 | 79 | 1012.2 |
| 20260508125518 | 11 | 210 | 1.6 | 4.8 | 0.00 | 0.00 | 0.00 | 82 | 1012.2 |
| 20260508125021 | 10 | 180 | 1.6 | 3.2 | 0.00 | 0.00 | 0.00 | 83 | 1012.2 |
| 20260508124524 | 10 | 222 | 1.6 | 3.2 | 0.00 | 0.00 | 0.00 | 84 | 1012.3 |
| 20260508124020 | 9 | 210 | 1.6 | 4.8 | 0.00 | 0.00 | 0.00 | 84 | 1012.3 |
| 20260508123518 | 8 | 228 | 1.6 | 4.8 | 0.00 | 0.00 | 0.00 | 87 | 1012.2 |
| 20260508123018 | 8 | 245 | 1.6 | 3.2 | 0.00 | 0.00 | 0.00 | 87 | 1012.2 |
| 20260508122520 | 8 | 240 | 1.6 | 3.2 | 0.00 | 0.00 | 0.00 | 88 | 1012.1 |
| 20260508122019 | 8 | 244 | 1.6 | 3.2 | 0.00 | 0.00 | 0.00 | 89 | 1012.0 |
| 20260508121518 | 7 | 233 | 1.6 | 3.2 | 0.00 | 0.00 | 0.00 | 90 | 1011.9 |
| 20260508121019 | 7 | 225 | 1.6 | 3.2 | 0.00 | 0.00 | 0.00 | 92 | 1011.8 |
| 20260508120519 | 6 | 196 | 0.0 | 3.2 | 0.00 | 0.00 | 0.00 | 91 | 1011.7 |
| 20260508120019 | 6 | 213 | 1.6 | 3.2 | 0.00 | 0.00 | 0.00 | 91 | 1011.7 |
| 20260508115520 | 6 | 224 | 1.6 | 3.2 | 0.00 | 0.00 | 0.00 | 92 | 1011.7 |
| 20260508115022 | 6 | 236 | 1.6 | 3.2 | 0.00 | 0.00 | 0.00 | 94 | 1011.7 |
| 20260508114519 | 5 | 241 | 0.0 | 1.6 | 0.00 | 0.00 | 0.00 | 95 | 1011.6 |
| 20260508114016 | 4 | 230 | 0.0 | 3.2 | 0.00 | 0.00 | 0.00 | 95 | 1011.5 |
| 20260508113517 | 3 | 254 | 1.6 | 3.2 | 0.00 | 0.00 | 0.00 | 95 | 1011.5 |
| 20260508113021 | 3 | 256 | 1.6 | 3.2 | 0.00 | 0.00 | 0.00 | 95 | 1011.5 |
| 20260508112519 | 3 | 256 | 1.6 | 3.2 | 0.00 | 0.00 | 0.00 | 96 | 1011.4 |
| 20260508112019 | 2 | 300 | 0.0 | 1.6 | 0.00 | 0.00 | 0.00 | 96 | 1011.4 |
| 20260508111519 | 2 | 3 | 0.0 | 1.6 | 0.00 | 0.00 | 0.00 | 96 | 1011.3 |
| 20260508111022 | 1 | 296 | 0.0 | 1.6 | 0.00 | 0.00 | 0.00 | 96 | 1011.4 |
| 20260508110519 | 1 | 232 | 1.6 | 3.2 | 0.00 | 0.00 | 0.00 | 96 | 1011.4 |
| 20260508110039 | 1 | 296 | 0.0 | 1.6 | 0.00 | 0.00 | 0.00 | 96 | 1011.4 |
| 20260508105521 | 1 | 330 | 1.6 | 3.2 | 0.00 | 0.00 | 0.00 | 95 | 1011.4 |
| 20260508105019 | 1 | 317 | 0.0 | 1.6 | 0.00 | 0.00 | 0.00 | 96 | 1011.3 |
| 20260508104541 | 1 | 222 | 1.6 | 3.2 | 0.00 | 0.00 | 0.00 | 96 | 1011.3 |
| 20260508104019 | 1 | 226 | 1.6 | 3.2 | 0.00 | 0.00 | 0.00 | 95 | 1011.2 |
| 20260508103541 | 1 | 228 | 1.6 | 1.6 | 0.00 | 0.00 | 0.00 | 95 | 1011.1 |
| 20260508103020 | 1 | 229 | 0.0 | 1.6 | 0.00 | 0.00 | 0.00 | 95 | 1011.1 |
| 20260508102539 | 1 | 310 | 0.0 | 1.6 | 0.00 | 0.00 | 0.00 | 95 | 1011.0 |
| 20260508102021 | 1 | 233 | 1.6 | 3.2 | 0.00 | 0.00 | 0.00 | 95 | 1011.1 |
| 20260508101518 | 1 | 215 | 0.0 | 3.2 | 0.00 | 0.00 | 0.00 | 94 | 1011.1 |
| 20260508101016 | 1 | 283 | 0.0 | 1.6 | 0.00 | 0.00 | 0.00 | 94 | 1011.1 |
| 20260508100517 | 1 | 280 | 1.6 | 1.6 | 0.00 | 0.00 | 0.00 | 94 | 1011.2 |
| 20260508100106 | 1 | 261 | 0.0 | 3.2 | 0.00 | 0.00 | 0.00 | 94 | 1011.2 |
| 20260508095546 | 1 | 250 | 0.0 | 1.6 | 0.00 | 0.00 | 0.00 | 94 | 1011.2 |
| 20260508095020 | 1 | 280 | 0.0 | 1.6 | 0.00 | 0.00 | 0.00 | 94 | 1011.2 |
| 20260508094520 | 1 | 272 | 1.6 | 1.6 | 0.00 | 0.00 | 0.00 | 94 | 1011.3 |
| 20260508094022 | 1 | 285 | 0.0 | 1.6 | 0.00 | 0.00 | 0.00 | 93 | 1011.3 |
| 20260508093521 | 1 | 302 | 0.0 | 1.6 | 0.00 | 0.00 | 0.00 | 93 | 1011.3 |
| 20260508093022 | 1 | 319 | 0.0 | 1.6 | 0.00 | 0.00 | 0.00 | 93 | 1011.3 |
| 20260508092520 | 1 | 295 | 0.0 | 1.6 | 0.00 | 0.00 | 0.00 | 93 | 1011.4 |
| 20260508092019 | 1 | 269 | 0.0 | 1.6 | 0.00 | 0.00 | 0.00 | 93 | 1011.4 |
| 20260508091518 | 2 | 291 | 1.6 | 1.6 | 0.00 | 0.00 | 0.00 | 93 | 1011.4 |
| 20260508091018 | 2 | 244 | 1.6 | 1.6 | 0.00 | 0.00 | 0.00 | 93 | 1011.4 |
| 20260508090521 | 2 | 316 | 0.0 | 1.6 | 0.00 | 0.00 | 0.00 | 93 | 1011.4 |
| 20260508090018 | 2 | 307 | 0.0 | 1.6 | 0.00 | 0.00 | 0.00 | 93 | 1011.4 |
| 20260508085521 | 1 | 346 | 1.6 | 3.2 | 0.00 | 0.00 | 0.00 | 92 | 1011.3 |
| 20260508085021 | 1 | 11 | 1.6 | 3.2 | 0.00 | 0.00 | 0.00 | 92 | 1011.3 |
| 20260508084519 | 1 | 308 | 1.6 | 1.6 | 0.00 | 0.00 | 0.00 | 92 | 1011.4 |
| 20260508084020 | 2 | 330 | 1.6 | 1.6 | 0.00 | 0.00 | 0.00 | 92 | 1011.4 |
| 20260508083558 | 2 | 338 | 1.6 | 3.2 | 0.00 | 0.00 | 0.00 | 92 | 1011.4 |
| 20260508083038 | 2 | 244 | 0.0 | 1.6 | 0.00 | 0.00 | 0.00 | 92 | 1011.4 |
| 20260508082520 | 2 | 289 | 0.0 | 1.6 | 0.00 | 0.00 | 0.00 | 91 | 1011.4 |
| 20260508082018 | 2 | 289 | 0.0 | 1.6 | 0.00 | 0.00 | 0.00 | 91 | 1011.4 |
| 20260508081520 | 2 | 264 | 1.6 | 3.2 | 0.00 | 0.00 | 0.00 | 91 | 1011.4 |
| 20260508081020 | 2 | 243 | 1.6 | 3.2 | 0.00 | 0.00 | 0.00 | 91 | 1011.4 |
| 20260508080519 | 2 | 330 | 1.6 | 3.2 | 0.00 | 0.00 | 0.00 | 91 | 1011.4 |
| 20260508080019 | 2 | 327 | 1.6 | 3.2 | 0.00 | 0.00 | 0.00 | 91 | 1011.5 |
| 20260508075519 | 2 | 291 | 1.6 | 1.6 | 0.00 | 0.00 | 0.00 | 90 | 1011.5 |
| 20260508075039 | 2 | 291 | 1.6 | 3.2 | 0.00 | 0.00 | 0.00 | 90 | 1011.5 |
| 20260508074516 | 2 | 334 | 1.6 | 3.2 | 0.00 | 0.00 | 0.00 | 90 | 1011.5 |
| 20260508074016 | 2 | 343 | 1.6 | 1.6 | 0.00 | 0.00 | 0.00 | 90 | 1011.6 |
| 20260508073516 | 2 | 309 | 1.6 | 3.2 | 0.00 | 0.00 | 0.00 | 90 | 1011.6 |
| 20260508073020 | 2 | 228 | 1.6 | 3.2 | 0.00 | 0.00 | 0.00 | 90 | 1011.6 |
| 20260508072520 | 2 | 252 | 0.0 | 1.6 | 0.00 | 0.00 | 0.00 | 89 | 1011.7 |
| 20260508072019 | 3 | 299 | 1.6 | 3.2 | 0.00 | 0.00 | 0.00 | 89 | 1011.8 |
| 20260508071521 | 3 | 314 | 1.6 | 3.2 | 0.00 | 0.00 | 0.00 | 89 | 1011.9 |
| 20260508071019 | 3 | 254 | 1.6 | 3.2 | 0.00 | 0.00 | 0.00 | 89 | 1011.9 |
| 20260508070520 | 3 | 234 | 1.6 | 3.2 | 0.00 | 0.00 | 0.00 | 89 | 1012.0 |
| 20260508070021 | 3 | 279 | 1.6 | 3.2 | 0.00 | 0.00 | 0.00 | 88 | 1012.0 |
| 20260508065521 | 3 | 258 | 1.6 | 3.2 | 0.00 | 0.00 | 0.00 | 88 | 1012.1 |
| 20260508065020 | 3 | 233 | 1.6 | 3.2 | 0.00 | 0.00 | 0.00 | 88 | 1012.1 |